Scottsdale, AZ

1:09 AM MST on February 08, 2016 (GMT -0700)
Scottsdale

Weather History for KSDL - May, 2014

Change the Weather History Date:

Friday, May 16, 2014

  Actual Average Record
Temperature  
Mean Temperature 83 °F -  
Max Temperature 100 °F 91 °F 105 °F (1997)
Min Temperature 66 °F 66 °F 54 °F (2015)
Cooling Degree Days 18    
Growing Degree Days 33 (Base 50)    
Moisture  
Dew Point 26 °F    
Average Humidity 15    
Maximum Humidity 31    
Minimum Humidity 5    
Precipitation  
Precipitation 0.00 in - - ()
Sea Level Pressure  
Sea Level Pressure 29.86 in    
Wind  
Wind Speed 2 mph (SW)    
Max Wind Speed 12 mph    
Max Gust Speed 18 mph    
Visibility 10 miles    
Events      
Averages and records for this station are not official NWS values.
T = Trace of Precipitation, MM = Missing Value Source: NWS Daily Summary

Daily Weather History Graph

Daily Weather History Graph

Search for Another Location

Airport or City:

Trip Planner

Search our weather history database for the weather conditions in past years. The results will help you decide how hot, cold, wet, or windy it might be!

Date:

Astronomy

May. 16, 2014 Rise Set
Actual Time 5:26 AM MST 7:22 PM MST
Civil Twilight 4:58 AM MST 7:49 PM MST
Nautical Twilight 4:25 AM MST 8:23 PM MST
Astronomical Twilight 3:49 AM MST 8:59 PM MST
Moon 9:32 PM MST (5/16) 7:11 AM MST (5/16)
Length of Visible Light 14h 51m
Length of Day
13h 55m
Waning Gibbous, 95% of the Moon is Illuminated
May 16
Waning Gibbous
May 21
Last Quarter
May 28
New
Jun 5
First Quarter
Jun 12
Full

Hourly Weather History & Observations

Time (MST) Temp. Dew Point Humidity Pressure Visibility Wind Dir Wind Speed Gust Speed Precip Events Conditions
12:53 AM 75.0 °F 35.1 °F 23% 29.91 in 10.0 mi Calm Calm - N/A   Clear
1:53 AM 75.0 °F 30.0 °F 19% 29.90 in 10.0 mi NNE 3.5 mph - N/A   Clear
2:53 AM 71.1 °F 36.0 °F 28% 29.90 in 10.0 mi Calm Calm - N/A   Clear
3:53 AM 69.1 °F 34.0 °F 27% 29.91 in 10.0 mi Calm Calm - N/A   Clear
4:53 AM 66.9 °F 35.1 °F 31% 29.91 in 10.0 mi Calm Calm - N/A   Clear
5:53 AM 66.9 °F 35.1 °F 31% 29.92 in 10.0 mi Calm Calm - N/A   Clear
6:53 AM 71.1 °F 39.0 °F 31% 29.94 in 10.0 mi SSW 3.5 mph - N/A   Clear
7:53 AM 75.9 °F 33.1 °F 21% 29.95 in 10.0 mi Calm Calm - N/A   Clear
8:53 AM 82.0 °F 32.0 °F 16% 29.95 in 10.0 mi Variable 3.5 mph - N/A   Clear
9:53 AM 88.0 °F 27.0 °F 11% 29.94 in 10.0 mi Calm Calm - N/A   Clear
10:53 AM 91.0 °F 25.0 °F 9% 29.92 in 10.0 mi SSW 6.9 mph - N/A   Clear
11:53 AM 93.9 °F 25.0 °F 8% 29.91 in 10.0 mi Calm Calm - N/A   Clear
1:53 PM 98.1 °F 18.0 °F 6% 29.85 in 10.0 mi Variable 3.5 mph - N/A   Clear
2:53 PM 100.0 °F 19.0 °F 5% 29.82 in 10.0 mi SSW 10.4 mph - N/A   Clear
3:53 PM 100.0 °F 18.0 °F 5% 29.80 in 10.0 mi SW 11.5 mph 18.4 mph N/A   Clear
4:53 PM 99.0 °F 17.1 °F 5% 29.78 in 10.0 mi SW 6.9 mph 17.3 mph N/A   Clear
5:53 PM 98.1 °F 16.0 °F 5% 29.77 in 10.0 mi WSW 8.1 mph - N/A   Clear
6:53 PM 97.0 °F 16.0 °F 5% 29.76 in 10.0 mi WSW 6.9 mph - N/A   Clear
8:53 PM 88.0 °F 19.0 °F 8% 29.76 in 10.0 mi Calm Calm - N/A   Clear
9:53 PM 90.0 °F 17.1 °F 7% 29.77 in 10.0 mi Calm Calm - N/A   Clear
10:53 PM 86.0 °F 25.0 °F 11% 29.77 in 10.0 mi North 5.8 mph - N/A   Clear
11:53 PM 82.9 °F 23.0 °F 11% 29.77 in 10.0 mi Calm Calm - N/A   Clear